www.pogodaiklimat.ru

Погода и климат >> Архив погоды >> Украина >> Хмельник


ПОГОДА в Хмельнике

  • Прогноз погоды в Хмельнике
  • Монитор погоды в Хмельнике
  • Климат города

АРХИВ ПОГОДЫ в Хмельнике

Время (UTC), дата Ветер
(напр.,м/с)
 
Видим.   Явления Облачность Т
(С)
Тd
(С)
f
(%)
Тe
(С)
Тes
(С)
Комфортность P
(гПа)
Po
(гПа)
Тmin
(С)
Tmax
(С)
R
(мм)
R24
(мм)
S
(см)
06 14.02 В 2 6000 м дымка 10/10 240 м
[St]
-5.8 -6.5 95 -10 -10 1019.4 1019.0 -5.8 9
09 14.02 В 2 5000 м слабый снег 10 баллов -4.8 -6.8 86 0.0
12 14.02 В 2 13 км {снег} 9/4 600 м
[Sc Ac trans Ci fib]
-3.8 -5.6 87 -8 -7 1020.4 1020.0 0.3
15 14.02 СВ 3 13 км 10 баллов -3.9 -6.5 82 0.0
18 14.02 В 3 10 км 10/10 360 м
[St]
-4.6 -6.2 89 -10 -10 1022.3 1022.0 -3.5 0.3
21 14.02 В 3 10 км 10 баллов -5.4 -7.2 87 0.0
00 15.02 В 1 10 км 8/8 450 м
[Sc]
-5.8 -7.7 86 -8 -8 1023.4 1023.0
03 15.02 В 2 2000 м слабый ливневой снег 10 баллов -5.6 -7.0 90 0.0
06 15.02 В 2 3000 м слабый ливневой снег 10/10 330 м
[Cb cap]
-5.2 -5.9 95 -10 -10 1024.5 1025.0 -5.8 0.4 9
09 15.02 В 2 4000 м слабый ливневой снег 10 баллов -2.0 -3.6 89 0.0
12 15.02 В 2 5000 м слабый снег {ливн. осадки} 10/10 330 м
[Frnb Ns]
-1.6 -3.0 90 -6 -6 1025.2 1025.0 0.8
15 15.02 СВ 2 4200 м слабый снег 10 баллов -2.4 -3.2 94 0.0
18 15.02 СВ 2 4000 м слабый снег 10/10 240 м
[Frnb Ns]
-2.8 -3.8 93 -7 -7 1027.1 1027.0 -1.6 3
21 15.02 штиль 0 4000 м дымка 10 баллов -2.0 -2.8 94 0.0
00 16.02 штиль 0 4000 м дымка {снег} 10/10 240 м
[St]
-1.8 -2.6 94 -3 -3 1027.3 1027.0 0.0
03 16.02 штиль 0 дымка 10 баллов 94 685.2 993.3
06 16.02 штиль 0 6000 м дымка 10/10 240 м
[St]
-1.7 -2.5 94 -3 -3 1026.9 1027.0 -2.8 0.0 11
09 16.02 штиль 0 8000 м дымка 10 баллов -0.2 -1.9 88 0.0
12 16.02 штиль 0 6000 м слабый снег 10 баллов +1.0 -1.6 83 0.0 0.0
15 16.02 штиль 0 10 баллов 88 992.0
18 16.02 штиль 0 4000 м дымка {снег} 10/10 420 м
[Sc]
+0.3 -0.3 96 -1 -1 1025.4 1025.0 +1.5 0.3
21 16.02 штиль 0 4000 м дымка 10 баллов -0.6 -1.4 94 0.0
00 17.02 штиль 0 4000 м дымка 10/10 270 м
[St]
-1.6 -3.2 89 -3 -3 1025.7 1026.0
03 17.02 С 1 дымка 10 баллов 94 514.4 992.0
06 17.02 ЮЗ 1 14 км 8/8 630 м
[Sc]
-0.8 -2.9 86 -3 -3 1025.7 1026.0 -1.8 9
09 17.02 З 2 17 км 4/0
[Ac trans]
+1.6 -3.2 70 -1 +2 1025.4 1025.0
12 17.02 З 2 21 км 3/0
[Ci fib]
+4.5 -4.0 54 +2 +6 1024.0 1024.0
15 17.02 З 1 18 км 9 баллов +0.8 -2.8 77 0.0
18 17.02 штиль 0 10 км ясно -2.8 -4.8 86 -4 -4 1024.3 1024.0 +4.6
21 17.02 штиль 0 10 км ясно -4.4 -6.4 86 -5 -5 1023.8 1024.0
00 18.02 штиль 0 10 км 6/0
[Ci fib]
-4.8 -6.1 91 -6 -6 1023.9 1024.0
03 18.02 штиль 0 н/о 3 балла -4.4 -6.4 86 -5 -5 1025.6 989.3
06 18.02 штиль 0 12 км 9/0
[Ac trans Ci fib]
-5.3 -7.1 87 -6 -6 1023.5 1024.0 -5.3 8
09 18.02 штиль 0 14 км 8/0
[Ac trans Ci sp]
+0.6 -4.8 67 -0 +4 1022.7 988.4
12 18.02 З 1 21 км 8/0
[Ci sp]
+2.8 -4.1 60 +2 +6 1022.0 1022.0
15 18.02 З 1 н/о 9 баллов +0.4 -2.6 80 -1 -1 1024.9 989.3
18 18.02 З 2 н/о слабый снег н/о -0.6 -1.7 92 -4 1025.0 989.3 0.2
21 18.02 СЗ 3 10 км 10 баллов -3.0 -4.7 88 0.0
00 19.02 СЗ 1 10 км {снег} 10/10 660 м
[Sc]
-3.8 -6.0 85 -6 -6 1025.8 1026.0 0.0
03 19.02 С 2 н/о 9 баллов -4.4 -6.4 86 -9 -9 -170.6 992.0
06 19.02 С 1 15 км 10/10 700 м
[Sc]
-4.6 -7.3 81 -7 -7 1026.9 1027.0 -4.9 0.0 8
09 19.02 З 2 22 км ясно -1.8 -8.3 61 -5 -0 1026.9 1027.0
12 19.02 З 2 24 км 9/0
[Ac trans]
-1.3 -8.4 58 -5 -3 1026.7 1027.0
15 19.02 З 1 23 км ясно -2.4 -9.2 60 -4 -4 1026.2 1026.0
18 19.02 штиль 0 10 км ясно -6.4 -9.6 78 -7 -7 1027.1 1027.0 -0.4
21 19.02 штиль 0 10 км ясно -8.8 -10.3 89 -9 -9 1027.0 1027.0
00 20.02 штиль 0 4000 м дымка ясно -11.4 -12.1 95 -12 -12 1027.6 1028.0
03 20.02 штиль 0 н/о дымка ясно -12.7 -13.3 95 -13 1030.9 993.3
06 20.02 штиль 0 4000 м дымка 3/0
[Ci fib]
-14.3 -14.9 95 -14 -14 1027.8 1028.0 -14.3 8
09 20.02 штиль 0 14 км 3/0
[Ci fib]
-2.4 -6.8 72 -3 +3 -343.1 1026.0
12 20.02 ЮВ 1 20 км 4/0
[Ci fib]
+0.2 -6.2 62 -1 +3 1024.7 1025.0
15 20.02 ЮВ 1 18 км 6/0
[Ci fib]
-2.2 -5.0 81 -4 -4 1024.2 1024.0
18 20.02 штиль 0 10 км ясно -5.4 -8.3 80 0.0 +0.4
21 20.02 штиль 0 10 км ясно -6.6 -9.0 83 -7 -7 1024.9 1025.0
00 21.02 штиль 0 10 км 6 баллов -7.4 -9.0 88 0.0

 

Местоположение метеостанции Хмельник (Винницкая область, Украина): широта 49.34 долгота 27.56 высота над уровнем моря 284 м.

В архиве по умолчанию представлена погода в Хмельнике за последнюю неделю. Архивные данные за месяц целиком и за предыдущие месяцы, начиная с января 2011 года, Вы можете получить, выбрав интересующий диапазон дат из раскрывающегося списка и нажав кнопку "Ввод!".

Внимание! Время в таблицах - всемирное. Для получения местного времени необходимо прибавить поправку, которая в Хмельнике равна 2 ч.

Смотрите также архив погоды в соседних городах и на ближайших метеорологических станциях:

Погода в Хмельницком (Хмельницкая область, Украина) (43 км)
Погода в Жмеринке (Винницкая область, Украина) (51 км)
Погода в Новой Ушице (Хмельницкая область, Украина) (58 км)
Погода в Виннице (Винницкая область, Украина) (76 км)
Погода в Новоднестровске (Черновицкая область, Украина) (86 км)
Погода в Шепетовке (Хмельницкая область, Украина) (100 км)
Погода в Могилев-Подольском (Винницкая область, Украина) (100 км)
Погода в Каменец-Подольском (Хмельницкая область, Украина) (101 км)
Погода в Белополе (Винницкая область, Украина) (110 км)
Погода в Бричанах (Молдова) (116 км)

Пояснения к столбцам:

Ветер - указаны скорость ветра в м/с - средняя за 10 мин, порывы в срок и между сроками (в фигурных скобках) и направление, откуда дует ветер: С - северный, СВ - северо-восточный, В - восточный, ЮВ - юго-восточный, Ю - южный, ЮЗ - юго-западный, З - западный, СЗ - северо-западный.
Видимость - горизонтальная дальность видимости в метрах или километрах. При видимости от 1 до 10 км при отсутствии осадков обычно наблюдается дымка, при ухудшении видимости до 1 км и менее - туман. В сухую погоду видимость может ухудшаться дымом, пылью или мглою.
Явления - указаны атмосферные явления, наблюдавшиеся в срок или в последний час перед сроком; фигурными скобками обозначены явления, наблюдавшиеся между сроками (за 1-3 часа до срока); квадратными скобками обозначены град или гололедные отложения с указанием их диаметра в мм.
Облачность - указаны через наклонную черту общая и нижняя облачность в баллах и высота нижней границы облаков в метрах; квадратными скобками обозначены формы облаков: Ci - перистые, Cs - перисто-слоистые, Cc - перисто-кучевые, Ac - высококучевые, As - высокослоистые, Sc - слоисто-кучевые, Ns - слоисто-дождевые, Cu - кучевые, Cb - кучево-дождевые. Подробнее классификацию облаков см. в Атласе облаков (PDF).
T - Температура воздуха - температура, измеренная на высоте 2 м над землей.
Td - Температура точки росы - температура, при понижении до которой содержащийся в воздухе водяной пар достигнет насыщения.
f - Относительная влажность воздуха - влажноcть воздуха, измеренная на высоте 2 м над землей.
Te - Эффективная температура - температура, которую ощущает одетый по сезону человек в тени. Характеристика душности погоды. При расчете учитывается влияние влажности воздуха и скорости ветра на теплоощущения человека.
Tes - Эффективная температура на солнце - температура, которую ощущает человек, с поправкой на солнечный нагрев. Характеристика знойности погоды. Зависит от высоты солнца над горизонтом, облачности и скорости ветра. Ночью, в пасмурную погоду, а также при ветре 12 м/с и более поправка равна нулю.
P - Атмосферное давление - приведенное к уровню моря атмосферное давление.
Po - Атмосферное давление - измеренное на уровне метеостанции атмосферное давление.
Tmin - Минимальная температура - минимум температуры воздуха на высоте 2 м над землей.
Tmax - Максимальная температура - максимум температуры воздуха на высоте 2 м над землей.
R - Количество осадков - Количество выпавших осадков за период времени, мм. При наведении курсора мыши на число - период времени, за который выпало указанное количество осадков.
R24 - Количество осадков - Количество выпавших осадков за 24 часа, мм.
S - Снежный покров - Высота снежного покрова, см. При наведении курсора мыши на число - состояние снежного покрова и степень покрытия местности в баллах.